Regional Weather Roundup
Issued by NWS

Home | Current Version | Previous Version | Text Only | Print | Product List | Glossary Off
Versions: 1 2 3 4 5 6 7 8 9 10 11 12 13 14 15 16 17 18 19 20 21 22 23 24 25 26 27 28 29 30 31 32 33 34 35 36 37 38 39 40 41 42 43 44 45 46 47 48 49 50

000
ASUS43 KMKX 190059
RWRWI

WISCONSIN REGIONAL WEATHER ROUNDUP
NATIONAL WEATHER SERVICE MILWAUKEE/SULLIVAN WI
700 PM CST SUN FEB 18 2018

NOTE: "FAIR" INDICATES FEW OR NO CLOUDS BELOW 12,000 FEET WITH NO
SIGNIFICANT WEATHER AND/OR OBSTRUCTIONS TO VISIBILITY.

WIZ001-002-006>008-014>016-023>028-190200-
NORTHWEST WISCONSIN

CITY           SKY/WX    TMP DP  RH WIND       PRES   REMARKS
SUPERIOR ARPT  LGT SNOW  26  25  96 E8        29.75R WCI  17
ASHLAND        LGT SNOW  24  22  91 N10       29.74R VSB 3/4 WCI  14
HAYWARD        CLOUDY    38  25  59 S7        29.66R WCI  33
SIREN          CLOUDY    39  28  64 S6        29.66R WCI  35
CUMBERLAND     CLOUDY    36  27  69 S13       29.66R WCI  27
RICE LAKE      CLOUDY    39  27  60 S15       29.69R WCI  31
CHETEK         CLOUDY    39  27  60 E5        29.68R
LADYSMITH      CLOUDY    38  24  56 S7        29.71R WCI  33
EAU CLAIRE     NOT AVBL
MENOMONIE      FAIR      38  26  61 S8        29.69R WCI  33
NEW RICHMOND   MOCLDY    38  28  68 S9        29.66R WCI  31
OSCEOLA        CLOUDY    39  30  70 S10       29.68R WCI  32
$$

WIZ003>005-009-010-017-018-190200-
NORTH CENTRAL WISCONSIN

CITY           SKY/WX    TMP DP  RH WIND       PRES   REMARKS
MANITOWISH WTR CLOUDY    33  23  67 S10       29.69R WCI  25
ARBOR VITAE    CLOUDY    37  26  66 S15G23    29.70R WCI  27
WOODRUFF       CLOUDY    37  26  66 S15G23    29.70R WCI  27
RHINELANDER    CLOUDY    34  22  61 S14       29.73R WCI  25
EAGLE RIVER    CLOUDY    32  21  63 S7        29.72R WCI  26
LAND O LAKES   CLOUDY    32  22  67 S8G16     29.72R WCI  25
PHILLIPS       CLOUDY    34  24  65 S16G22    29.69R WCI  24
TOMAHAWK       MOCLDY    32  22  67 S3        29.73R
MEDFORD        FAIR      31  22  70 S13       29.73R WCI  21
MERRILL        FAIR      33  23  68 S7        29.76S WCI  26
$$

WIZ029-030-035-036-043>047-190200-
CENTRAL WISCONSIN

CITY           SKY/WX    TMP DP  RH WIND       PRES   REMARKS
WAUSAU         FAIR      32  23  69 S14       29.76S WCI  22
MOSINEE        NOT AVBL
MARSHFIELD     FAIR      32  24  72 S14       29.75R WCI  22
STEVENS POINT  MOCLDY    31  23  72 S7        29.81S WCI  24
WAUPACA        CLOUDY    37  24  58 S9G20     29.85R WCI  30
WAUTOMA        CLOUDY    34  25  69 S10       29.84R WCI  26
WISC RAPIDS    FAIR      35  21  56 S10       29.80S WCI  27
CAMP DOUGLAS   CLOUDY    37  27  66 S15G24    29.78S WCI  28
$$

WIZ011>013-019>022-031-037>040-048>050-190200-
NORTHEAST WISCONSIN

CITY           SKY/WX    TMP DP  RH WIND       PRES   REMARKS
ANTIGO         FAIR      29  22  75 S13       29.78S WCI  19
SHAWANO        CLOUDY    35  24  65 S3        29.84R
OCONTO         CLOUDY    32  27  81 S10G16    29.84S WCI  23
STURGEON BAY   CLOUDY    33  28  81 S22G30    29.84S WCI  21
GREEN BAY      CLOUDY    34  25  69 S10       29.86R WCI  26
MANITOWOC      CLOUDY    34  29  82 S24G37    29.86F WCI  21
APPLETON       MOCLDY    32  23  69 S15G23    29.82R WCI  22
CLINTONVILLE   CLOUDY    35  23  60 S10       29.84R WCI  28
OSHKOSH        CLOUDY    34  25  69 S18G25    29.82R WCI  23
$$

WIZ032>034-041-042-053>061-190200-
SOUTHWEST WISCONSIN

CITY           SKY/WX    TMP DP  RH WIND       PRES   REMARKS
LA CROSSE      FAIR      39  27  62 S10       29.76R WCI  32
SPARTA         FAIR      37  27  68 S9        29.78S WCI  30
VIROQUA        FAIR      36  30  79 S15G21    29.76S WCI  26
BOSCOBEL       CLOUDY    40  29  64 S9        29.82R WCI  34
PRAIRIE DU CHI CLOUDY    38  29  69 SE7       29.79R WCI  33
PLATTEVILLE    FAIR      38  31  77 SE15      29.81R WCI  29
$$

WIZ056-057-062-063-064-067-068-190200-
SOUTH CENTRAL WISCONSIN

CITY           SKY/WX    TMP DP  RH WIND       PRES   REMARKS
REEDSBURG      CLOUDY    35  28  74 S12       29.81S WCI  27
BARABOO/DELLS  CLOUDY    34  27  76 S17G24    29.81R WCI  23
LONE ROCK      CLOUDY    38  30  73 S6        29.83R WCI  33
MINERAL POINT  CLOUDY    36  34  93 SE21      29.79S WCI  24
MADISON        MOCLDY    35  29  78 S20       29.84R WCI  24
MIDDLETON      FAIR      36  31  81 S15G23    29.82F WCI  27
WATERTOWN      FAIR      35  26  68 SE14G20   29.86S WCI  26
MONROE         FAIR      34  32  93 S24G31    29.82F WCI  21
JANESVILLE     MOCLDY    37  30  75 S12G23    29.86F WCI  30
$$

WIZ051-052-058>065-066-070>072-190200-
SOUTHEAST WISCONSIN

CITY           SKY/WX    TMP DP  RH WIND       PRES   REMARKS
MILWAUKEE      MOCLDY    35  29  78 S16G26    29.92F WCI  25
WAUKESHA       CLEAR     30  25  80 SE14      29.90F WCI  20
MILWAUKEE/TIMM CLEAR     32  25  74 S14       29.92F WCI  22
RACINE         FAIR      34  30  85 S18G33    29.95F WCI  23
BURLINGTON     FAIR      36  27  70 S10G21    29.92S WCI  28
KENOSHA        FAIR      34  28  79 S21G29    29.93F WCI  22
FOND DU LAC    CLOUDY    34  24  67 S21G31    29.83F WCI  22
SHEBOYGAN      MOCLDY    33  29  85 S28G39    29.88F WCI  20
WEST BEND      FAIR      32  28  86 SE9       29.89F WCI  24
JUNEAU         FAIR      34  24  65 SE16G25   29.87S WCI  24
$$

LSZ147-162-190200-
LAKE SUPERIOR

STATION/POSITION TIME  TEMP    WIND        PRES    WAVE
                       AIR SEA DIR/SP/G            HT/PER
                 (UTC) (F)     (DEG/KT/KT) (MB)    (FT/S)
DEVILS ISLAND    0000   25      60/ 20/ 22 1008.5R
SAXON HARBOR     0040   27      50/ 10/ 13 1006.8R
$$

LMZ867-665-643>646-190200-
LAKE MICHIGAN

STATION/POSITION TIME  TEMP    WIND        PRES    WAVE
                       AIR SEA DIR/SP/G            HT/PER
                 (UTC) (F)     (DEG/KT/KT) (MB)    (FT/S)
NORTHPORT PIER   0040   35                 1010.8F
KEWAUNEE LAKESHO 0030   33     170/ 26/ 32 1011.4F
SHEBOYGAN LAKESH 0000   34     170/ 34/ 37 1013.0F
PORT WASHINGTON  0030   34     170/ 20/ 27 1014.6F
MILWAUKEE LAKESH 0030   34     170/ 20/ 23   N/A
KENOSHA   LAKESH 0000   34     160/ 31/ 35 1013.5
$$

TC  - TEMPERATURE IN CELSIUS
VSB - VISIBILITY IN STATUTE MILES
WCI - WIND CHILL INDEX
HX  - HEAT INDEX





USA.gov is the U.S. government's official web portal to all federal, state and local government web resources and services.